This demonstration page uses our WeatherBlox Daily Observations layout. Learn more.

41.55636, -103.73856

Hourly Observations for January 18, 2018

Temp ( °F °C ) Dew Point ( °F °C ) Humidity (%) Winds ( mph kmh ) Pressure ( in mb ) Visibility ( mi km ) Precip ( " mm )
12:53 am 00:53 Clear 18 -7.8 13 -10.6 81 81 E 3 6 30.18 1022 10 16.09344 0 0
1:53 am 01:53 Clear 20 -6.7 16 -8.9 85 85 Calm 30.18 1022 10 16.09344 0 0
2:53 am 02:53 Clear 19 -7.2 14 -10 81 81 Calm 30.12 1020 10 16.09344 0 0
3:53 am 03:53 Clear 18 -7.8 14 -10 84 84 NNE 6 9 30.12 1020 10 16.09344 0 0
4:53 am 04:53 Clear 18 -7.8 14 -10 84 84 Calm 30.12 1020 10 16.09344 0 0
5:53 am 05:53 Clear 17 -8.3 13 -10.6 84 84 Calm 30.12 1020 10 16.09344 0 0
6:53 am 06:53 Clear 23 -5 18 -7.8 81 81 N 8 13 30.12 1020 10 16.09344 0 0
7:53 am 07:53 Sunny 27 -2.8 20 -6.7 75 75 NW 7 11 30.12 1020 10 16.09344 0 0
8:53 am 08:53 Sunny 32 0 23 -5 69 69 NW 8 13 30.09 1019 10 16.09344 0 0
9:53 am 09:53 Sunny 39 3.9 26 -3.3 60 60 NW 9 15 30.09 1019 10 16.09344 0 0
10:53 am 10:53 Sunny 43 6.1 28 -2.2 56 56 WNW 8 13 30.06 1018 10 16.09344 0 0
11:53 am 11:53 Sunny 45 7.2 30 -1.1 56 56 N 3 6 30.03 1017 10 16.09344 0 0
12:53 pm 12:53 Sunny 46 7.8 30 -1.1 54 54 NNE 3 6 30 1016 10 16.09344 0 0
1:53 pm 13:53 Sunny 51 10.6 30 -1.1 44 44 Calm 29.94 1014 10 16.09344 0 0
2:53 pm 14:53 Sunny 48 8.9 31 -0.6 52 52 NW 7 11 29.94 1014 10 16.09344 0 0
3:53 pm 15:53 Sunny 48 8.9 31 -0.6 52 52 W 10 17 29.94 1014 10 16.09344 0 0
4:53 pm 16:53 Clear 47 8.3 31 -0.6 54 54 WNW 9 15 29.91 1013 10 16.09344 0 0
5:53 pm 17:53 Clear 44 6.7 31 -0.6 60 60 WNW 9 15 29.94 1014 10 16.09344 0 0
6:53 pm 18:53 Clear 46 7.8 31 -0.6 56 56 WNW 12 19 29.91 1013 10 16.09344 0 0
7:53 pm 19:53 Clear 41 5 31 -0.6 67 67 NW 6 9 29.91 1013 10 16.09344 0 0
8:53 pm 20:53 Clear 41 5 30 -1.1 65 65 NW 3 6 29.88 1012 10 16.09344 0 0
9:53 pm 21:53 Clear 36 2.2 30 -1.1 79 79 E 6 9 29.85 1011 10 16.09344 0 0
10:53 pm 22:53 Clear 36 2.2 29 -1.7 76 76 N 7 11 29.85 1011 10 16.09344 0 0
11:53 pm 23:53 Clear 35 1.7 29 -1.7 78 78 E 3 6 29.83 1010 10 16.09344 0 0

Powered by AerisWeather